| time (UTC) | temp F | wind direction | speed knots | gust knots | rain 1hr in | rain 24hr in | rain mn in | humidity % | barometer mb |
| 20260510160043 | 58 | 293 | 1.7 | 5.2 | 0.00 | 0.00 | 0.00 | 96 | 1012.1 |
| 20260510153023 | 56 | 338 | 2.6 | 7.0 | 0.00 | 0.00 | 0.00 | 96 | 1012.0 |
| 20260510150023 | 55 | 0 | 1.7 | 7.0 | 0.00 | 0.00 | 0.00 | 96 | 1012.0 |
| 20260510143023 | 55 | 0 | 0.9 | 4.3 | 0.00 | 0.00 | 0.00 | 96 | 1011.8 |
| 20260510140024 | 54 | 315 | 1.7 | 3.5 | 0.00 | 0.00 | 0.00 | 96 | 1011.6 |
| 20260510133023 | 54 | 248 | 0.9 | 3.5 | 0.00 | 0.00 | 0.00 | 96 | 1011.6 |
| 20260510130026 | 54 | 293 | 0.9 | 2.6 | 0.00 | 0.00 | 0.00 | 96 | 1011.6 |
| 20260510123023 | 54 | 293 | 0.9 | 3.5 | 0.00 | 0.00 | 0.00 | 96 | 1011.7 |
| 20260510120023 | 54 | 315 | 0.9 | 2.6 | 0.00 | 0.00 | 0.00 | 95 | 1011.7 |
| 20260510113023 | 55 | 135 | 0.9 | 3.5 | 0.00 | 0.00 | 0.00 | 95 | 1011.6 |
| 20260510110044 | 55 | 0.0 | 1.7 | 0.00 | 0.00 | 0.00 | 95 | 1011.8 | |
| 20260510103023 | 55 | 0.0 | 2.6 | 0.00 | 0.00 | 0.00 | 95 | 1011.8 | |
| 20260510100023 | 55 | 0.0 | 1.7 | 0.00 | 0.00 | 0.00 | 95 | 1012.0 | |
| 20260510093022 | 55 | 0.0 | 0.0 | 0.00 | 0.00 | 0.00 | 95 | 1012.0 | |
| 20260510090022 | 55 | 0.0 | 2.6 | 0.00 | 0.00 | 0.00 | 94 | 1012.2 | |
| 20260510083022 | 56 | 113 | 1.7 | 3.5 | 0.00 | 0.00 | 0.00 | 94 | 1012.4 |
| 20260510080022 | 56 | 0.0 | 0.0 | 0.00 | 0.00 | 0.00 | 94 | 1012.6 | |
| 20260510073022 | 56 | 0.0 | 2.6 | 0.00 | 0.00 | 0.00 | 94 | 1012.7 | |
| 20260510070022 | 56 | 0.0 | 0.9 | 0.00 | 0.00 | 0.00 | 93 | 1012.8 | |
| 20260510063022 | 56 | 248 | 0.9 | 3.5 | 0.00 | 0.00 | 0.00 | 93 | 1012.9 |
| 20260510060022 | 56 | 248 | 1.7 | 3.5 | 0.00 | 0.00 | 0.00 | 92 | 1012.8 |
| 20260510053022 | 56 | 248 | 2.6 | 4.3 | 0.00 | 0.00 | 0.00 | 91 | 1012.7 |
| 20260510050023 | 57 | 248 | 2.6 | 4.3 | 0.00 | 0.00 | 0.00 | 90 | 1012.5 |
| 20260510043022 | 57 | 248 | 3.5 | 7.0 | 0.00 | 0.00 | 0.00 | 90 | 1012.4 |
| 20260510040021 | 58 | 270 | 3.5 | 6.1 | 0.00 | 0.00 | 0.00 | 89 | 1012.0 |
| 20260510033023 | 59 | 248 | 3.5 | 7.0 | 0.00 | 0.00 | 0.00 | 87 | 1011.5 |
| 20260510030022 | 60 | 270 | 5.2 | 7.8 | 0.00 | 0.00 | 0.00 | 84 | 1011.1 |
| 20260510023023 | 63 | 270 | 5.2 | 7.8 | 0.00 | 0.00 | 0.00 | 79 | 1011.0 |
| 20260510020023 | 66 | 248 | 7.0 | 11.3 | 0.00 | 0.00 | 0.00 | 73 | 1011.2 |
| 20260510013021 | 70 | 270 | 7.0 | 11.3 | 0.00 | 0.00 | 0.00 | 67 | 1010.9 |
| 20260510010021 | 73 | 270 | 6.1 | 9.6 | 0.00 | 0.00 | 0.00 | 62 | 1011.1 |
| 20260510003021 | 74 | 270 | 6.1 | 10.4 | 0.00 | 0.00 | 0.00 | 59 | 1011.0 |
| 20260510000023 | 74 | 248 | 6.1 | 12.2 | 0.00 | 0.00 | 0.00 | 57 | 1011.0 |
| 20260509233024 | 73 | 248 | 7.8 | 13.0 | 0.00 | 0.00 | 0.00 | 62 | 1010.9 |
| 20260509230043 | 73 | 248 | 8.7 | 14.8 | 0.00 | 0.00 | 0.00 | 63 | 1011.2 |
| 20260509223023 | 73 | 248 | 9.6 | 16.5 | 0.00 | 0.00 | 0.00 | 62 | 1011.4 |
| 20260509220023 | 75 | 248 | 8.7 | 15.6 | 0.00 | 0.00 | 0.00 | 60 | 1011.6 |
| 20260509213043 | 75 | 248 | 9.6 | 15.6 | 0.00 | 0.00 | 0.00 | 61 | 1011.8 |
| 20260509210041 | 75 | 248 | 8.7 | 14.8 | 0.00 | 0.00 | 0.00 | 60 | 1011.8 |
| 20260509203021 | 76 | 248 | 9.6 | 15.6 | 0.00 | 0.00 | 0.00 | 59 | 1012.0 |
| 20260509200023 | 78 | 248 | 7.0 | 13.0 | 0.00 | 0.00 | 0.00 | 58 | 1012.2 |
| 20260509193022 | 78 | 248 | 7.0 | 12.2 | 0.00 | 0.00 | 0.00 | 58 | 1012.4 |
| 20260509190023 | 76 | 293 | 6.1 | 11.3 | 0.00 | 0.00 | 0.00 | 62 | 1012.4 |
| 20260509183042 | 75 | 293 | 5.2 | 9.6 | 0.00 | 0.00 | 0.00 | 64 | 1012.7 |
| 20260509180044 | 73 | 338 | 4.3 | 9.6 | 0.00 | 0.00 | 0.00 | 68 | 1012.7 |
| 20260509173022 | 70 | 338 | 3.5 | 7.8 | 0.00 | 0.00 | 0.00 | 72 | 1012.9 |
| 20260509170043 | 67 | 315 | 2.6 | 7.8 | 0.00 | 0.00 | 0.00 | 78 | 1012.8 |
| 20260509163042 | 64 | 293 | 3.5 | 7.8 | 0.00 | 0.00 | 0.00 | 86 | 1012.7 |